Weather History for KBML - June, 2013

Change the Weather History Date:

Tuesday, June 11, 2013

  Actual Average Record
Temperature  
Mean Temperature 57 °F -  
Max Temperature 60 °F 69 °F 89 °F (2005)
Min Temperature 54 °F 42 °F 30 °F (2004)
Degree Days  
Heating Degree Days 8    
Growing Degree Days 7 (Base 50)    
Moisture  
Dew Point 53 °F    
Average Humidity 89    
Maximum Humidity 94    
Minimum Humidity 72    
Precipitation  
Precipitation 0.91 in - - ()
Sea Level Pressure  
Sea Level Pressure 29.78 in    
Wind  
Wind Speed 3 mph (East)    
Max Wind Speed 10 mph    
Max Gust Speed -    
Visibility 6 miles    
Events Rain    
Averages and records for this station are not official NWS values.
T = Trace of Precipitation, MM = Missing Value Source: NWS Daily Summary

Daily Weather History Graph

Daily Weather History Graph

Search for Another Location

Airport or City:

Trip Planner

Search our weather history database for the weather conditions in past years. The results will help you decide how hot, cold, wet, or windy it might be!

Date:

Astronomy

Jun. 11, 2013 Rise Set
Actual Time 4:59 AM EDT 8:29 PM EDT
Civil Twilight 4:22 AM EDT 9:06 PM EDT
Nautical Twilight 3:34 AM EDT 9:55 PM EDT
Astronomical Twilight 2:31 AM EDT 10:57 PM EDT
Moon 7:44 AM EDT (6/11) 10:24 PM EDT (6/11)
Length of Visible Light 16h 43m
Length of Day
15h 30m
Waxing Crescent, 8% of the Moon is Illuminated
Jun 11
Waxing Crescent
Jun 16
First Quarter
Jun 23
Full
Jun 30
Last Quarter
Jul 8
New

Hourly Weather History & Observations

Time (EDT) Temp. Dew Point Humidity Pressure Visibility Wind Dir Wind Speed Gust Speed Precip Events Conditions
12:52 AM 57.0 °F 55.0 °F 93% 30.00 in 10.0 mi Calm Calm - 0.00 in   Overcast
1:52 AM 57.9 °F 50.0 °F 75% 29.99 in 10.0 mi SE 9.2 mph - 0.00 in Rain Light Rain
2:52 AM 57.9 °F 48.9 °F 72% 29.96 in 10.0 mi SE 10.4 mph - 0.00 in Rain Light Rain
3:52 AM 57.0 °F 50.0 °F 77% 29.94 in 10.0 mi SSE 5.8 mph - 0.00 in   Overcast
4:52 AM 55.0 °F 53.1 °F 93% 29.93 in 5.0 mi SSE 3.5 mph - 0.03 in Rain Light Rain
5:22 AM 55.4 °F 53.6 °F 94% 29.92 in 4.0 mi Calm Calm - 0.05 in Rain Rain
5:35 AM 55.4 °F 51.8 °F 88% 29.91 in 3.0 mi Calm Calm - 0.09 in Rain Rain
5:52 AM 55.0 °F 53.1 °F 93% 29.91 in 3.0 mi Calm Calm - 0.13 in Rain Rain
5:58 AM 55.4 °F 53.6 °F 94% 29.91 in 2.5 mi Calm Calm - 0.01 in Rain Rain
6:07 AM 55.4 °F 53.6 °F 94% 29.91 in 4.0 mi Calm Calm - 0.03 in Rain Rain
6:52 AM 55.0 °F 53.1 °F 93% 29.90 in 5.0 mi North 3.5 mph - 0.11 in Rain Light Rain
7:06 AM 55.4 °F 53.6 °F 94% 29.90 in 2.0 mi Calm Calm - 0.03 in Rain Rain
7:24 AM 55.4 °F 53.6 °F 94% 29.89 in 3.0 mi East 4.6 mph - 0.07 in Rain Rain
7:52 AM 55.0 °F 52.0 °F 89% 29.88 in 4.0 mi Calm Calm - 0.12 in Rain Rain
8:17 AM 55.4 °F 51.8 °F 88% 29.87 in 3.0 mi East 3.5 mph - 0.04 in Rain Rain
8:52 AM 55.0 °F 52.0 °F 89% 29.85 in 4.0 mi ESE 3.5 mph - 0.09 in Rain Rain
9:52 AM 55.0 °F 51.1 °F 86% 29.83 in 4.0 mi ESE 8.1 mph - 0.10 in Rain Rain
10:52 AM 55.9 °F 52.0 °F 87% 29.80 in 4.0 mi ESE 4.6 mph - 0.03 in Rain Light Rain
11:52 AM 55.9 °F 52.0 °F 87% 29.77 in 10.0 mi ESE 4.6 mph - 0.01 in Rain Light Rain
12:52 PM 55.9 °F 53.1 °F 90% 29.77 in 4.0 mi Calm Calm - 0.05 in Rain Light Rain
1:07 PM 55.4 °F 53.6 °F 94% 29.76 in 1.8 mi Calm Calm - 0.03 in Rain Rain
1:27 PM 55.4 °F 53.6 °F 94% 29.76 in 2.0 mi Calm Calm - 0.07 in Rain Rain
1:34 PM 55.4 °F 53.6 °F 94% 29.76 in 1.8 mi Calm Calm - 0.08 in Rain Rain
1:44 PM 55.4 °F 53.6 °F 94% 29.75 in 1.2 mi Calm Calm - 0.12 in Rain Heavy Rain
1:52 PM 55.0 °F 53.1 °F 93% 29.75 in 1.8 mi Calm Calm - 0.13 in Rain Rain
1:59 PM 55.4 °F 53.6 °F 94% 29.75 in 2.5 mi Calm Calm - 0.01 in Rain Rain
2:07 PM 55.4 °F 53.6 °F 94% 29.75 in 2.5 mi Calm Calm - 0.03 in Rain Rain
2:28 PM 57.2 °F 53.6 °F 88% 29.73 in 4.0 mi Calm Calm - 0.06 in Rain Light Rain
2:52 PM 57.9 °F 54.0 °F 87% 29.73 in 8.0 mi Calm Calm - 0.07 in Rain Light Rain
3:10 PM 57.2 °F 53.6 °F 88% 29.71 in 10.0 mi Variable 3.5 mph - 0.00 in   Overcast
3:27 PM 59.0 °F 53.6 °F 82% 29.70 in 10.0 mi NE 3.5 mph - 0.00 in   Overcast
3:52 PM 59.0 °F 53.1 °F 81% 29.69 in 10.0 mi Calm Calm - 0.00 in Rain Light Rain
4:52 PM 57.9 °F 53.1 °F 84% 29.68 in 10.0 mi Calm Calm - 0.00 in   Overcast
5:13 PM 59.0 °F 53.6 °F 82% 29.66 in 10.0 mi ENE 3.5 mph - N/A   Overcast
5:52 PM 57.9 °F 52.0 °F 81% 29.66 in 10.0 mi ENE 3.5 mph - N/A   Overcast
6:52 PM 57.9 °F 52.0 °F 81% 29.64 in 10.0 mi ENE 4.6 mph - N/A   Overcast
7:09 PM 57.2 °F 53.6 °F 88% 29.63 in 10.0 mi Calm Calm - N/A   Overcast
7:52 PM 57.0 °F 52.0 °F 83% 29.64 in 10.0 mi Calm Calm - N/A   Overcast
8:09 PM 55.4 °F 51.8 °F 88% 29.63 in 1.8 mi ENE 4.6 mph - 0.00 in Rain Light Rain
8:13 PM 55.4 °F 53.6 °F 94% 29.63 in 3.0 mi ENE 3.5 mph - 0.00 in Rain Light Rain
8:52 PM 55.9 °F 53.1 °F 90% 29.63 in 10.0 mi Calm Calm - 0.00 in   Overcast
9:52 PM 55.0 °F 53.1 °F 93% 29.63 in 7.0 mi NNW 3.5 mph - 0.01 in Rain Light Rain
10:52 PM 55.0 °F 53.1 °F 93% 29.62 in 10.0 mi NNW 3.5 mph - 0.00 in Rain Light Rain
11:52 PM 54.0 °F 52.0 °F 93% 29.62 in 6.0 mi North 5.8 mph - 0.03 in Rain Light Rain